This is the latest recevied weather packets stored in our database for station/object KQ4WWD. If no packets are shown the sender has not sent any weather packets the latest 10 day(s).
| Time | Temp. | Humidity | Pressure | Rain* | Wind** | Luminosity | Snow |
|---|---|---|---|---|---|---|---|
| 1788368334 | 31.67° C | 78% | 1015.6 hPa | 0 mm | - | 774 W/m² | - |
| 1788368033 | 31.67° C | 77% | 1015.7 hPa | 0 mm | - | 662 W/m² | - |
| 1788367728 | 31.67° C | 78% | 1015.7 hPa | 0 mm | - | 421 W/m² | - |
| 1788367423 | 31.67° C | 78% | 1015.6 hPa | 0 mm | - | 897 W/m² | - |
| 1788367122 | 30.56° C | 79% | 1015.4 hPa | 0 mm | - | 548 W/m² | - |
| 1788366817 | 31.11° C | 78% | 1015.9 hPa | 0 mm | - | 422 W/m² | - |
| 1788366515 | 30.56° C | 79% | 1015.8 hPa | 0 mm | - | 386 W/m² | - |
| 1788366211 | 31.11° C | 80% | 1015.9 hPa | 0 mm | - | 779 W/m² | - |
| 1788365911 | 30.56° C | 81% | 1015.6 hPa | 0 mm | - | 422 W/m² | - |
| 1788365606 | 30° C | 81% | 1016.1 hPa | 0 mm | - | 328 W/m² | - |
| 1788365302 | 30° C | 82% | 1015.8 hPa | 0 mm | - | 161 W/m² | - |
| 1788364997 | 30° C | 82% | 1016.2 hPa | 0 mm | - | 113 W/m² | - |
| 1788364695 | 30.56° C | 82% | 1016.3 hPa | 0 mm | - | 126 W/m² | - |
| 1788364394 | 30.56° C | 81% | 1016.2 hPa | 0 mm | - | 169 W/m² | - |
| 1788364089 | 30.56° C | 80% | 1016.2 hPa | 0 mm | - | 164 W/m² | - |
| 1788363785 | 31.11° C | 80% | 1016.3 hPa | 0 mm | - | 837 W/m² | - |
| 1788363484 | 31.11° C | 79% | 1016.2 hPa | 0 mm | - | 730 W/m² | - |
| 1788363178 | 31.11° C | 80% | 1016.5 hPa | 0 mm | - | 673 W/m² | - |
| 1788362874 | 30.56° C | 81% | 1016.2 hPa | 0 mm | - | 790 W/m² | - |
| 1788362570 | 30.56° C | 82% | 1016.3 hPa | 0 mm | - | 587 W/m² | - |
| 1788362270 | 30° C | 84% | 1016.4 hPa | 0 mm | - | 792 W/m² | - |
| 1788361965 | 30° C | 85% | 1016.5 hPa | 0 mm | - | 131 W/m² | - |
| 1788361660 | 28.89° C | 86% | 1016.4 hPa | 0 mm | - | 642 W/m² | - |
| 1788361357 | 29.44° C | 85% | 1016.6 hPa | 0 mm | - | 147 W/m² | - |
| 1788361055 | 30° C | 84% | 1016.3 hPa | 0 mm | - | 226 W/m² | - |
* Rain latest hour (hover to see other rain measurements)
** Current wind speed in m/s (hover to see current wind gust speed)